VLG52UU EGGP-LEBL

Flight info

Callsign VLG52UU
Flight time 1h 53m
Altitude 35000
Route NANTI L8 STAFA P18 TELBA L151 KIDLI UN859 GWC/N0458F370 UN859 SOPIL DCT BALAN DCT EVPOK DCT NARAK DCT GAI DCT LOMRA DCT ROCAN DCT PUMAL
Aircraft A320/M-SDE3FGHIRWY/LB1

Departure

Time 2026-05-07 13:59
Airport Liverpool John Lennon Airport (EGGP)

Arrival

Time 2026-05-07 15:53
Airport Josep Tarradellas Barcelona-El Prat Airport (LEBL)
Time Latitude Longitude Altitude Speed Heading
2026-05-07 13:47 53.33586 -2.85191 89 ft 0 kts 265°
2026-05-07 13:52 53.33586 -2.85190 89 ft 2 kts 265°
2026-05-07 13:53 53.33587 -2.85162 90 ft 2 kts 256°
2026-05-07 13:53 53.33592 -2.85134 91 ft 2 kts 256°
2026-05-07 13:53 53.33595 -2.85115 91 ft 3 kts 238°
2026-05-07 13:53 53.33607 -2.85094 90 ft 2 kts 212°
2026-05-07 13:54 53.33620 -2.85079 93 ft 1 kts 210°
2026-05-07 13:54 53.33633 -2.85070 89 ft 3 kts 182°
2026-05-07 13:54 53.33649 -2.85073 90 ft 2 kts 173°
2026-05-07 13:54 53.33651 -2.85073 90 ft 0 kts 173°
2026-05-07 13:56 53.33646 -2.85074 91 ft 3 kts 182°
2026-05-07 13:56 53.33613 -2.85070 92 ft 6 kts 175°
2026-05-07 13:56 53.33557 -2.85064 106 ft 10 kts 180°
2026-05-07 13:57 53.33520 -2.85157 91 ft 12 kts 263°
2026-05-07 13:57 53.33515 -2.85309 89 ft 15 kts 265°
2026-05-07 13:57 53.33506 -2.85497 89 ft 18 kts 265°
2026-05-07 13:57 53.33494 -2.85721 90 ft 21 kts 265°
2026-05-07 13:58 53.33482 -2.85981 93 ft 24 kts 266°
2026-05-07 13:58 53.33467 -2.86274 93 ft 27 kts 264°
2026-05-07 13:58 53.33455 -2.86571 89 ft 21 kts 267°
2026-05-07 13:58 53.33372 -2.86725 91 ft 19 kts 175°
2026-05-07 13:59 53.33291 -2.86524 88 ft 28 kts 85°
2026-05-07 13:59 53.33319 -2.85907 89 ft 94 kts 85°
2026-05-07 13:59 53.33389 -2.84371 114 ft 165 kts 87°
2026-05-07 13:59 53.33416 -2.82341 734 ft 182 kts 105°
2026-05-07 14:00 53.32906 -2.80370 1570 ft 190 kts 133°
2026-05-07 14:00 53.31915 -2.78819 2292 ft 199 kts 144°
2026-05-07 14:00 53.30764 -2.77377 2876 ft 214 kts 147°
2026-05-07 14:00 53.29500 -2.75908 3508 ft 230 kts 148°
2026-05-07 14:01 53.28117 -2.74381 4148 ft 245 kts 149°
2026-05-07 14:01 53.26592 -2.73021 4993 ft 251 kts 158°
2026-05-07 14:01 53.24967 -2.71898 5890 ft 255 kts 161°
2026-05-07 14:01 53.23293 -2.70834 6755 ft 260 kts 161°
2026-05-07 14:02 53.21590 -2.69751 7600 ft 264 kts 161°
2026-05-07 14:02 53.19873 -2.68630 8456 ft 267 kts 160°
2026-05-07 14:02 53.18138 -2.67470 9329 ft 270 kts 160°
2026-05-07 14:02 53.16387 -2.66277 10174 ft 274 kts 160°
2026-05-07 14:03 53.14564 -2.65024 10575 ft 294 kts 159°
2026-05-07 14:03 53.12604 -2.63668 10854 ft 316 kts 159°
2026-05-07 14:03 53.10503 -2.62211 11076 ft 338 kts 159°
2026-05-07 14:03 53.08264 -2.60658 11214 ft 359 kts 159°
2026-05-07 14:04 53.05894 -2.59013 11346 ft 379 kts 159°
2026-05-07 14:04 53.03410 -2.57282 11632 ft 392 kts 158°
2026-05-07 14:04 53.00855 -2.55495 12241 ft 396 kts 158°
2026-05-07 14:04 52.98307 -2.53722 12849 ft 399 kts 158°
2026-05-07 14:05 52.95733 -2.51939 13439 ft 402 kts 158°
2026-05-07 14:05 52.93140 -2.50149 13974 ft 406 kts 158°
2026-05-07 14:05 52.90519 -2.48344 14450 ft 410 kts 159°
2026-05-07 14:05 52.87877 -2.46529 14924 ft 413 kts 159°
2026-05-07 14:06 52.85210 -2.44700 15358 ft 417 kts 159°
2026-05-07 14:06 52.82520 -2.42854 15802 ft 420 kts 159°
2026-05-07 14:06 52.79812 -2.40998 16219 ft 423 kts 159°
2026-05-07 14:06 52.77084 -2.39129 16636 ft 426 kts 159°
2026-05-07 14:07 52.74331 -2.37241 17028 ft 430 kts 159°
2026-05-07 14:07 52.71560 -2.35347 17413 ft 433 kts 159°
2026-05-07 14:07 52.68768 -2.33447 17811 ft 436 kts 159°
2026-05-07 14:07 52.66011 -2.31295 18172 ft 440 kts 152°
2026-05-07 14:08 52.63423 -2.28558 18504 ft 444 kts 148°
2026-05-07 14:08 52.60815 -2.25691 18841 ft 446 kts 148°
2026-05-07 14:08 52.58224 -2.22852 19146 ft 448 kts 148°
2026-05-07 14:08 52.55622 -2.20007 19435 ft 450 kts 148°
2026-05-07 14:09 52.53007 -2.17152 19730 ft 452 kts 148°
2026-05-07 14:09 52.50384 -2.14297 20008 ft 454 kts 148°
2026-05-07 14:09 52.47744 -2.11427 20269 ft 456 kts 148°
2026-05-07 14:09 52.45093 -2.08547 20542 ft 458 kts 148°
2026-05-07 14:10 52.42435 -2.05665 20794 ft 459 kts 148°
2026-05-07 14:10 52.39765 -2.02776 21026 ft 461 kts 148°
2026-05-07 14:10 52.37082 -1.99880 21264 ft 463 kts 148°
2026-05-07 14:10 52.34391 -1.96975 21487 ft 464 kts 148°
2026-05-07 14:11 52.31690 -1.94065 21682 ft 466 kts 148°
2026-05-07 14:11 52.28980 -1.91147 21907 ft 467 kts 148°
2026-05-07 14:11 52.26260 -1.88219 22105 ft 469 kts 148°
2026-05-07 14:11 52.23535 -1.85286 22282 ft 470 kts 148°
2026-05-07 14:12 52.20795 -1.82351 22442 ft 472 kts 148°
2026-05-07 14:12 52.18046 -1.79411 22597 ft 473 kts 148°
2026-05-07 14:12 52.15258 -1.76432 22748 ft 474 kts 148°
2026-05-07 14:12 52.12530 -1.73524 22878 ft 475 kts 148°
2026-05-07 14:13 52.09723 -1.70532 23019 ft 476 kts 148°
2026-05-07 14:13 52.06962 -1.67588 23153 ft 476 kts 148°
2026-05-07 14:13 52.04188 -1.64632 23288 ft 476 kts 148°
2026-05-07 14:13 52.01416 -1.61680 23432 ft 477 kts 148°
2026-05-07 14:14 51.98640 -1.58737 23555 ft 477 kts 148°
2026-05-07 14:14 51.95860 -1.55802 23682 ft 477 kts 148°
2026-05-07 14:14 51.93074 -1.52871 23802 ft 477 kts 149°
2026-05-07 14:14 51.90291 -1.49950 23912 ft 477 kts 148°
2026-05-07 14:15 51.87505 -1.47022 24035 ft 477 kts 148°
2026-05-07 14:15 51.84719 -1.44095 24155 ft 477 kts 148°
2026-05-07 14:15 51.81934 -1.41175 24267 ft 477 kts 148°
2026-05-07 14:15 51.79144 -1.38268 24387 ft 477 kts 150°
2026-05-07 14:16 51.76210 -1.35821 24502 ft 475 kts 159°
2026-05-07 14:16 51.73098 -1.34076 24625 ft 473 kts 164°
2026-05-07 14:16 51.69953 -1.32490 24737 ft 473 kts 164°
2026-05-07 14:16 51.66812 -1.30903 24860 ft 473 kts 164°
2026-05-07 14:17 51.63674 -1.29318 24979 ft 473 kts 164°
2026-05-07 14:17 51.60532 -1.27731 25107 ft 473 kts 164°
2026-05-07 14:17 51.57390 -1.26143 25224 ft 473 kts 164°
2026-05-07 14:17 51.54204 -1.24536 25349 ft 473 kts 164°
2026-05-07 14:18 51.51064 -1.22959 25473 ft 473 kts 164°
2026-05-07 14:18 51.47970 -1.21140 25583 ft 475 kts 158°
2026-05-07 14:18 51.44967 -1.18932 25727 ft 475 kts 157°
2026-05-07 14:18 51.41967 -1.16710 25838 ft 475 kts 157°
2026-05-07 14:19 51.38969 -1.14486 25964 ft 475 kts 157°
2026-05-07 14:19 51.35967 -1.12263 26096 ft 475 kts 157°
2026-05-07 14:19 51.32965 -1.10049 26212 ft 475 kts 157°
2026-05-07 14:19 51.29965 -1.07846 26355 ft 475 kts 157°
2026-05-07 14:20 51.26958 -1.05649 26475 ft 475 kts 158°
2026-05-07 14:20 51.23946 -1.03457 26604 ft 475 kts 158°
2026-05-07 14:20 51.20945 -1.01282 26730 ft 475 kts 158°
2026-05-07 14:20 51.17942 -0.99109 26860 ft 475 kts 158°
2026-05-07 14:21 51.14931 -0.96932 26987 ft 475 kts 158°
2026-05-07 14:21 51.11923 -0.94753 27119 ft 475 kts 158°
2026-05-07 14:21 51.08917 -0.92571 27247 ft 475 kts 158°
2026-05-07 14:21 51.05917 -0.90392 27374 ft 475 kts 158°
2026-05-07 14:22 51.02911 -0.88211 27515 ft 475 kts 158°
2026-05-07 14:22 50.99909 -0.86037 27639 ft 475 kts 158°
2026-05-07 14:22 50.96903 -0.83867 27778 ft 474 kts 158°
2026-05-07 14:22 50.93897 -0.81705 27914 ft 474 kts 158°
2026-05-07 14:23 50.91863 -0.80246 28004 ft 474 kts 158°
2026-05-07 14:23 50.88859 -0.78093 28146 ft 474 kts 158°
2026-05-07 14:23 50.85867 -0.75898 28290 ft 475 kts 154°
2026-05-07 14:23 50.83037 -0.73176 28420 ft 477 kts 149°
2026-05-07 14:24 50.80257 -0.70322 28560 ft 477 kts 149°
2026-05-07 14:24 50.77474 -0.67471 28701 ft 476 kts 149°
2026-05-07 14:24 50.74689 -0.64624 28832 ft 476 kts 149°
2026-05-07 14:24 50.71908 -0.61797 28983 ft 476 kts 149°
2026-05-07 14:25 50.69119 -0.58973 29116 ft 476 kts 149°
2026-05-07 14:25 50.66333 -0.56157 29256 ft 476 kts 149°
2026-05-07 14:25 50.63547 -0.53344 29398 ft 475 kts 149°
2026-05-07 14:25 50.60764 -0.50539 29536 ft 475 kts 150°
2026-05-07 14:26 50.57979 -0.47735 29677 ft 475 kts 149°
2026-05-07 14:26 50.55194 -0.44935 29832 ft 475 kts 150°
2026-05-07 14:26 50.52413 -0.42146 29964 ft 475 kts 150°
2026-05-07 14:26 50.49625 -0.39354 30101 ft 475 kts 150°
2026-05-07 14:27 50.46844 -0.36570 30241 ft 474 kts 150°
2026-05-07 14:27 50.44063 -0.33786 30352 ft 474 kts 150°
2026-05-07 14:27 50.41241 -0.30965 30479 ft 474 kts 150°
2026-05-07 14:27 50.38499 -0.28227 30602 ft 474 kts 150°
2026-05-07 14:28 50.35687 -0.25425 30716 ft 473 kts 150°
2026-05-07 14:28 50.32908 -0.22658 30851 ft 473 kts 150°
2026-05-07 14:28 50.30134 -0.19901 30972 ft 472 kts 150°
2026-05-07 14:28 50.27358 -0.17145 31098 ft 472 kts 150°
2026-05-07 14:29 50.24591 -0.14406 31223 ft 472 kts 150°
2026-05-07 14:29 50.21819 -0.11671 31349 ft 471 kts 150°
2026-05-07 14:29 50.19046 -0.08938 31476 ft 471 kts 150°
2026-05-07 14:29 50.16281 -0.06217 31602 ft 470 kts 150°
2026-05-07 14:30 50.13512 -0.03493 31729 ft 470 kts 150°
2026-05-07 14:30 50.10689 -0.00958 31858 ft 467 kts 157°
2026-05-07 14:30 50.07681 0.00879 31990 ft 463 kts 166°
2026-05-07 14:30 50.04568 0.02140 32119 ft 462 kts 168°
2026-05-07 14:31 50.01454 0.03355 32250 ft 461 kts 168°
2026-05-07 14:31 49.98339 0.04572 32378 ft 461 kts 168°
2026-05-07 14:31 49.95230 0.05791 32508 ft 461 kts 168°
2026-05-07 14:31 49.92126 0.07013 32641 ft 460 kts 168°
2026-05-07 14:32 49.89019 0.08237 32774 ft 460 kts 168°
2026-05-07 14:32 49.85923 0.09454 32903 ft 460 kts 168°
2026-05-07 14:32 49.82821 0.10670 33035 ft 459 kts 168°
2026-05-07 14:32 49.79729 0.11878 33168 ft 459 kts 168°
2026-05-07 14:33 49.76631 0.13085 33299 ft 458 kts 168°
2026-05-07 14:33 49.73546 0.14286 33436 ft 458 kts 168°
2026-05-07 14:33 49.70456 0.15485 33576 ft 457 kts 168°
2026-05-07 14:33 49.67370 0.16680 33702 ft 457 kts 168°
2026-05-07 14:34 49.64292 0.17898 33846 ft 457 kts 168°
2026-05-07 14:34 49.61214 0.19144 33985 ft 457 kts 167°
2026-05-07 14:34 49.58145 0.20400 34112 ft 456 kts 167°
2026-05-07 14:34 49.55075 0.21657 34230 ft 456 kts 167°
2026-05-07 14:35 49.52008 0.22907 34345 ft 456 kts 167°
2026-05-07 14:35 49.48938 0.24145 34460 ft 456 kts 167°
2026-05-07 14:35 49.45827 0.25392 34579 ft 456 kts 168°
2026-05-07 14:35 49.42756 0.26614 34701 ft 456 kts 168°
2026-05-07 14:36 49.39682 0.27833 34820 ft 456 kts 168°
2026-05-07 14:36 49.36613 0.29049 34967 ft 456 kts 168°
2026-05-07 14:36 49.33538 0.30271 35044 ft 457 kts 168°
2026-05-07 14:37 49.27387 0.32761 35055 ft 458 kts 167°
2026-05-07 14:37 49.18168 0.36670 35043 ft 458 kts 167°
2026-05-07 14:38 49.12023 0.39270 35043 ft 458 kts 167°
2026-05-07 14:38 49.05869 0.41850 35035 ft 458 kts 167°
2026-05-07 14:39 48.99719 0.44416 35033 ft 458 kts 167°
2026-05-07 14:39 48.93566 0.46993 35037 ft 459 kts 167°
2026-05-07 14:40 48.87413 0.49553 35038 ft 459 kts 167°
2026-05-07 14:40 48.81252 0.52091 35037 ft 459 kts 167°
2026-05-07 14:41 48.75089 0.54608 35032 ft 458 kts 167°
2026-05-07 14:41 48.68915 0.57041 35034 ft 458 kts 168°
2026-05-07 14:42 48.62694 0.59452 35034 ft 458 kts 168°
2026-05-07 14:42 48.56517 0.61837 35035 ft 458 kts 168°
2026-05-07 14:43 48.50340 0.64235 35034 ft 459 kts 167°
2026-05-07 14:43 48.44177 0.66736 35037 ft 459 kts 167°
2026-05-07 14:44 48.38020 0.69283 35033 ft 459 kts 167°
2026-05-07 14:44 48.31857 0.71797 35033 ft 459 kts 167°
2026-05-07 14:45 48.25694 0.74282 35031 ft 459 kts 167°
2026-05-07 14:45 48.19526 0.76731 35031 ft 459 kts 168°
2026-05-07 14:46 48.13347 0.79150 35031 ft 459 kts 168°
2026-05-07 14:46 48.07175 0.81565 35027 ft 459 kts 168°
2026-05-07 14:47 48.01000 0.83977 35023 ft 459 kts 168°
2026-05-07 14:47 47.94825 0.86384 35027 ft 459 kts 168°
2026-05-07 14:48 47.88650 0.88802 35027 ft 458 kts 168°
2026-05-07 14:48 47.82479 0.91197 35022 ft 458 kts 168°
2026-05-07 14:49 47.76304 0.93577 35024 ft 458 kts 168°
2026-05-07 14:49 47.70096 0.95979 35026 ft 458 kts 168°
2026-05-07 14:50 47.63926 0.98362 35028 ft 458 kts 168°
2026-05-07 14:50 47.57763 1.00737 35028 ft 458 kts 168°
2026-05-07 14:51 47.51596 1.03110 35028 ft 458 kts 168°
2026-05-07 14:51 47.45432 1.05472 35028 ft 457 kts 169°
2026-05-07 14:52 47.39169 1.06377 35029 ft 451 kts 184°
2026-05-07 14:52 47.32900 1.06203 35027 ft 451 kts 184°
2026-05-07 14:53 47.26628 1.06039 35023 ft 451 kts 184°
2026-05-07 14:53 47.20356 1.05907 35019 ft 451 kts 184°
2026-05-07 14:54 47.14082 1.05773 35013 ft 451 kts 184°
2026-05-07 14:54 47.07768 1.05621 35014 ft 451 kts 184°
2026-05-07 14:55 47.01499 1.05466 35013 ft 450 kts 184°
2026-05-07 14:55 46.96298 1.05275 35012 ft 450 kts 185°
2026-05-07 14:56 46.90038 1.04972 35014 ft 450 kts 185°
2026-05-07 14:56 46.83786 1.04683 35013 ft 450 kts 185°
2026-05-07 14:57 46.77494 1.04414 35010 ft 449 kts 185°
2026-05-07 14:57 46.71242 1.04156 35005 ft 449 kts 185°
2026-05-07 14:58 46.64994 1.03894 35005 ft 449 kts 185°
2026-05-07 14:58 46.58748 1.03627 35003 ft 449 kts 185°
2026-05-07 14:59 46.52508 1.03461 35003 ft 450 kts 180°
2026-05-07 14:59 46.46311 1.05116 35006 ft 455 kts 171°
2026-05-07 15:00 46.40147 1.07191 34998 ft 455 kts 171°
2026-05-07 15:00 46.33977 1.09234 35004 ft 454 kts 171°
2026-05-07 15:01 46.27817 1.11271 34999 ft 454 kts 171°
2026-05-07 15:01 46.21657 1.13313 34993 ft 454 kts 171°
2026-05-07 15:02 46.15503 1.15348 34995 ft 454 kts 171°
2026-05-07 15:02 46.09308 1.17407 34999 ft 453 kts 171°
2026-05-07 15:03 46.03160 1.19446 35005 ft 453 kts 171°
2026-05-07 15:03 45.97018 1.21466 35008 ft 453 kts 171°
2026-05-07 15:04 45.90869 1.23476 35005 ft 453 kts 171°
2026-05-07 15:04 45.84725 1.25487 35009 ft 453 kts 171°
2026-05-07 15:05 45.78584 1.27494 35008 ft 453 kts 171°
2026-05-07 15:05 45.72444 1.29500 35006 ft 452 kts 171°
2026-05-07 15:06 45.66308 1.31495 35003 ft 452 kts 171°
2026-05-07 15:06 45.60167 1.33491 35001 ft 452 kts 171°
2026-05-07 15:07 45.54040 1.35488 34992 ft 452 kts 171°
2026-05-07 15:07 45.47864 1.37478 34992 ft 452 kts 171°
2026-05-07 15:08 45.41730 1.39450 34994 ft 452 kts 171°
2026-05-07 15:08 45.35598 1.41421 34993 ft 452 kts 171°
2026-05-07 15:09 45.29475 1.43387 34986 ft 452 kts 171°
2026-05-07 15:09 45.23341 1.45352 34982 ft 451 kts 171°
2026-05-07 15:10 45.17214 1.47306 34982 ft 451 kts 171°
2026-05-07 15:10 45.11083 1.49263 34980 ft 451 kts 170°
2026-05-07 15:11 45.04958 1.51225 34978 ft 451 kts 170°
2026-05-07 15:11 44.98791 1.53181 34977 ft 451 kts 171°
2026-05-07 15:12 44.92666 1.55116 34980 ft 451 kts 170°
2026-05-07 15:12 44.86543 1.57052 34979 ft 451 kts 170°
2026-05-07 15:13 44.80418 1.58984 34985 ft 451 kts 170°
2026-05-07 15:13 44.74293 1.60914 34991 ft 451 kts 170°
2026-05-07 15:14 44.68176 1.62830 34990 ft 451 kts 171°
2026-05-07 15:14 44.62057 1.64750 34995 ft 450 kts 170°
2026-05-07 15:15 44.55945 1.66670 34988 ft 450 kts 171°
2026-05-07 15:15 44.49829 1.68583 34988 ft 450 kts 171°
2026-05-07 15:16 44.43719 1.70487 34988 ft 450 kts 171°
2026-05-07 15:16 44.37570 1.72387 34987 ft 449 kts 171°
2026-05-07 15:17 44.31468 1.74274 34991 ft 449 kts 171°
2026-05-07 15:17 44.25347 1.75993 34990 ft 448 kts 173°
2026-05-07 15:18 44.19200 1.77302 34986 ft 447 kts 175°
2026-05-07 15:18 44.13047 1.78528 34987 ft 446 kts 175°
2026-05-07 15:19 44.06906 1.79841 34986 ft 447 kts 174°
2026-05-07 15:19 44.00771 1.81212 34986 ft 446 kts 174°
2026-05-07 15:20 43.94637 1.82543 34985 ft 445 kts 176°
2026-05-07 15:20 43.88487 1.83328 34989 ft 443 kts 180°
2026-05-07 15:21 43.82334 1.83756 34990 ft 442 kts 180°
2026-05-07 15:21 43.76188 1.84233 34992 ft 442 kts 180°
2026-05-07 15:22 43.70006 1.84826 34992 ft 442 kts 179°
2026-05-07 15:22 43.63870 1.85443 34991 ft 442 kts 179°
2026-05-07 15:23 43.57745 1.86057 34986 ft 441 kts 180°
2026-05-07 15:23 43.51625 1.86658 34987 ft 441 kts 180°
2026-05-07 15:24 43.45517 1.87241 34981 ft 440 kts 180°
2026-05-07 15:24 43.39415 1.87821 34977 ft 439 kts 180°
2026-05-07 15:25 43.33316 1.88403 34971 ft 439 kts 180°
2026-05-07 15:25 43.27230 1.88985 34974 ft 438 kts 180°
2026-05-07 15:26 43.22137 1.89473 34973 ft 437 kts 180°
2026-05-07 15:26 43.16070 1.90049 34971 ft 437 kts 180°
2026-05-07 15:27 43.10014 1.90625 34975 ft 436 kts 180°
2026-05-07 15:27 43.03965 1.91203 34975 ft 435 kts 180°
2026-05-07 15:28 42.97924 1.91777 34983 ft 435 kts 181°
2026-05-07 15:28 42.91893 1.92344 34985 ft 434 kts 181°
2026-05-07 15:29 42.88889 1.92627 34859 ft 433 kts 181°
2026-05-07 15:29 42.85892 1.92909 34462 ft 425 kts 181°
2026-05-07 15:29 42.80078 1.93470 34282 ft 415 kts 181°
2026-05-07 15:30 42.77163 1.93744 34031 ft 415 kts 181°
2026-05-07 15:30 42.74283 1.94011 33119 ft 416 kts 181°
2026-05-07 15:30 42.71380 1.94279 32177 ft 420 kts 181°
2026-05-07 15:30 42.68445 1.94549 31202 ft 426 kts 181°
2026-05-07 15:31 42.65473 1.94893 30264 ft 431 kts 178°
2026-05-07 15:31 42.62465 1.95415 29581 ft 438 kts 176°
2026-05-07 15:31 42.59435 1.96052 28865 ft 443 kts 175°
2026-05-07 15:31 42.56386 1.96743 28189 ft 447 kts 174°
2026-05-07 15:32 42.53306 1.97446 27516 ft 450 kts 174°
2026-05-07 15:32 42.50208 1.98127 26858 ft 452 kts 174°
2026-05-07 15:32 42.47091 1.98779 26220 ft 455 kts 174°
2026-05-07 15:32 42.43949 1.99409 25592 ft 458 kts 174°
2026-05-07 15:33 42.40783 2.00031 24978 ft 461 kts 174°
2026-05-07 15:33 42.37606 2.00657 24379 ft 463 kts 174°
2026-05-07 15:33 42.34401 2.01233 23787 ft 466 kts 175°
2026-05-07 15:33 42.31174 2.01690 23143 ft 468 kts 176°
2026-05-07 15:34 42.27931 2.02059 22456 ft 466 kts 177°
2026-05-07 15:34 42.24717 2.02384 21789 ft 461 kts 177°
2026-05-07 15:34 42.21564 2.02701 21134 ft 449 kts 177°
2026-05-07 15:34 42.18474 2.03031 20496 ft 442 kts 177°
2026-05-07 15:35 42.15421 2.03381 19873 ft 438 kts 176°
2026-05-07 15:35 42.12393 2.03745 19261 ft 435 kts 176°
2026-05-07 15:35 42.09394 2.04113 18660 ft 432 kts 176°
2026-05-07 15:35 42.06415 2.04480 18048 ft 429 kts 176°
2026-05-07 15:36 42.03454 2.04843 17418 ft 426 kts 176°
2026-05-07 15:36 42.00510 2.05200 16864 ft 424 kts 176°
2026-05-07 15:36 41.97583 2.05552 16319 ft 421 kts 176°
2026-05-07 15:36 41.94631 2.05902 15780 ft 418 kts 176°
2026-05-07 15:37 41.91796 2.06240 15279 ft 410 kts 176°
2026-05-07 15:37 41.88948 2.06580 14790 ft 402 kts 176°
2026-05-07 15:37 41.86184 2.06908 14305 ft 395 kts 176°
2026-05-07 15:37 41.83472 2.07230 13831 ft 389 kts 176°
2026-05-07 15:38 41.80786 2.07549 13304 ft 386 kts 175°
2026-05-07 15:38 41.78120 2.07865 12776 ft 383 kts 175°
2026-05-07 15:38 41.75477 2.08179 12342 ft 377 kts 175°
2026-05-07 15:38 41.72900 2.08488 11959 ft 367 kts 175°
2026-05-07 15:39 41.70388 2.08791 11582 ft 358 kts 175°
2026-05-07 15:39 41.67925 2.09088 11213 ft 353 kts 175°
2026-05-07 15:39 41.65501 2.09375 10867 ft 345 kts 175°
2026-05-07 15:39 41.63139 2.09652 10527 ft 337 kts 175°
2026-05-07 15:40 41.60831 2.09922 10184 ft 329 kts 175°
2026-05-07 15:40 41.58573 2.10189 9852 ft 323 kts 175°
2026-05-07 15:40 41.56362 2.10450 9564 ft 314 kts 175°
2026-05-07 15:40 41.54211 2.10409 9270 ft 307 kts 190°
2026-05-07 15:41 41.52233 2.09473 8987 ft 299 kts 210°
2026-05-07 15:41 41.50634 2.07761 8699 ft 293 kts 229°
2026-05-07 15:41 41.49498 2.05547 8421 ft 287 kts 239°
2026-05-07 15:41 41.48471 2.03298 8137 ft 281 kts 238°
2026-05-07 15:42 41.47448 2.01070 7859 ft 275 kts 238°
2026-05-07 15:42 41.46456 1.98915 7582 ft 270 kts 238°
2026-05-07 15:42 41.45487 1.96808 7340 ft 263 kts 238°
2026-05-07 15:42 41.44541 1.94754 7116 ft 256 kts 238°
2026-05-07 15:43 41.43620 1.92756 6921 ft 250 kts 238°
2026-05-07 15:43 41.42715 1.90790 6721 ft 248 kts 238°
2026-05-07 15:43 41.41815 1.88831 6519 ft 247 kts 238°
2026-05-07 15:43 41.40916 1.86878 6330 ft 247 kts 237°
2026-05-07 15:44 41.40021 1.84931 6123 ft 246 kts 237°
2026-05-07 15:44 41.39126 1.82989 5916 ft 246 kts 237°
2026-05-07 15:44 41.38233 1.81058 5710 ft 244 kts 237°
2026-05-07 15:44 41.37341 1.79139 5507 ft 243 kts 236°
2026-05-07 15:45 41.36449 1.77243 5303 ft 239 kts 237°
2026-05-07 15:45 41.35580 1.75384 5098 ft 232 kts 233°
2026-05-07 15:45 41.34434 1.73973 4911 ft 222 kts 205°
2026-05-07 15:45 41.32984 1.73451 4707 ft 213 kts 179°
2026-05-07 15:46 41.30306 1.74805 4292 ft 208 kts 148°
2026-05-07 15:46 41.29074 1.75772 4093 ft 204 kts 148°
2026-05-07 15:46 41.27873 1.76712 3880 ft 195 kts 149°
2026-05-07 15:47 41.26728 1.77607 3673 ft 188 kts 148°
2026-05-07 15:47 41.25598 1.78491 3509 ft 184 kts 148°
2026-05-07 15:47 41.24509 1.79343 3327 ft 184 kts 148°
2026-05-07 15:47 41.23398 1.80227 3111 ft 183 kts 143°
2026-05-07 15:48 41.22509 1.81410 3017 ft 181 kts 123°
2026-05-07 15:48 41.21992 1.82928 3007 ft 181 kts 104°
2026-05-07 15:48 41.21904 1.84591 3008 ft 182 kts 84°
2026-05-07 15:48 41.22255 1.86205 3004 ft 183 kts 66°
2026-05-07 15:49 41.22787 1.87738 3007 ft 183 kts 67°
2026-05-07 15:49 41.23319 1.89277 2886 ft 183 kts 67°
2026-05-07 15:49 41.23848 1.90807 2679 ft 182 kts 67°
2026-05-07 15:49 41.24376 1.92338 2449 ft 182 kts 67°
2026-05-07 15:50 41.24904 1.93870 2202 ft 182 kts 68°
2026-05-07 15:50 41.25424 1.95379 1965 ft 176 kts 66°
2026-05-07 15:50 41.25920 1.96817 1738 ft 167 kts 69°
2026-05-07 15:50 41.26392 1.98189 1538 ft 161 kts 68°
2026-05-07 15:51 41.26846 1.99510 1306 ft 157 kts 69°
2026-05-07 15:51 41.27287 2.00790 1090 ft 145 kts 68°
2026-05-07 15:51 41.27689 2.01960 896 ft 134 kts 69°
2026-05-07 15:51 41.28075 2.03077 752 ft 131 kts 68°
2026-05-07 15:52 41.28448 2.04166 647 ft 127 kts 71°
2026-05-07 15:52 41.28823 2.05246 449 ft 132 kts 68°
2026-05-07 15:52 41.29200 2.06348 217 ft 129 kts 70°
2026-05-07 15:52 41.29566 2.07429 53 ft 127 kts 69°
2026-05-07 15:53 41.29899 2.08411 27 ft 98 kts 66°
2026-05-07 15:53 41.30102 2.09012 20 ft 45 kts 66°
2026-05-07 15:53 41.30133 2.09334 15 ft 23 kts 98°
2026-05-07 15:53 41.30092 2.09435 16 ft 9 kts 152°
2026-05-07 15:54 41.30028 2.09470 18 ft 11 kts 157°
2026-05-07 15:54 41.29964 2.09456 16 ft 10 kts 237°
2026-05-07 15:54 41.29938 2.09377 18 ft 9 kts 248°
2026-05-07 15:54 41.29913 2.09306 16 ft 8 kts 245°
2026-05-07 15:55 41.29889 2.09235 17 ft 10 kts 245°
2026-05-07 15:55 41.29871 2.09183 16 ft 9 kts 245°
2026-05-07 15:55 41.29846 2.09109 18 ft 8 kts 245°
2026-05-07 15:55 41.29819 2.09031 17 ft 14 kts 245°
2026-05-07 15:56 41.29770 2.08888 19 ft 19 kts 243°
2026-05-07 15:56 41.29710 2.08716 17 ft 22 kts 245°
2026-05-07 15:56 41.29646 2.08526 19 ft 23 kts 245°
2026-05-07 15:56 41.29580 2.08334 16 ft 23 kts 246°
2026-05-07 15:57 41.29535 2.08122 15 ft 25 kts 244°
2026-05-07 15:57 41.29464 2.07918 15 ft 23 kts 245°
2026-05-07 15:57 41.29402 2.07736 17 ft 14 kts 245°
2026-05-07 15:57 41.29362 2.07620 18 ft 14 kts 246°
2026-05-07 15:58 41.29314 2.07569 16 ft 9 kts 171°
2026-05-07 15:58 41.29259 2.07604 18 ft 9 kts 154°
2026-05-07 15:58 41.29202 2.07639 19 ft 10 kts 156°
2026-05-07 15:58 41.29145 2.07656 19 ft 8 kts 201°
2026-05-07 15:59 41.29092 2.07658 20 ft 8 kts 149°
2026-05-07 15:59 41.29066 2.07676 19 ft 0 kts 155°
2026-05-07 15:59 41.29060 2.07680 21 ft 0 kts 155°
2026-05-07 15:59 41.29054 2.07684 20 ft 1 kts 155°
2026-05-07 16:00 41.29051 2.07685 20 ft 0 kts 156°